Clines Corner, NM

10:29 AM MDT on May 20, 2018 (GMT -0600)
Clines Corner

Weather History for KCQC - October, 2012

Change the Weather History Date:

Sunday, October 7, 2012

  Actual Average (KSAF) Record (KSAF)
Temperature  
Mean Temperature 46 °F -  
Max Temperature 63 °F 79 °F 81 °F (1980)
Min Temperature 30 °F 33 °F 33 °F (1978)
Degree Days  
Heating Degree Days 19    
Moisture  
Dew Point 29 °F    
Average Humidity 76    
Maximum Humidity 100    
Minimum Humidity 15    
Precipitation  
Precipitation 0.00 in - - ()
Sea Level Pressure  
Sea Level Pressure 30.14 in    
Wind  
Wind Speed 12 mph (SSE)    
Max Wind Speed 20 mph    
Max Gust Speed 29 mph    
Visibility 6 miles    
Events Fog    
Averages and records for this station are not official NWS values.
T = Trace of Precipitation, MM = Missing Value Source: NWS Daily Summary

Daily Weather History Graph

Daily Weather History Graph

Search for Another Location

Airport or City:

Astronomy

Oct. 07, 2012 Rise Set
Actual Time 7:02 AM MDT 6:37 PM MDT
Civil Twilight 6:37 AM MDT 7:02 PM MDT
Nautical Twilight 6:07 AM MDT 7:32 PM MDT
Astronomical Twilight 5:38 AM MDT 8:01 PM MDT
Moon No Moon Rise 1:32 PM MDT (10/7)
Length of Visible Light 12h 25m
Length of Day
11h 35m
Waning Gibbous, 55% of the Moon is Illuminated
Oct 7
Waning Gibbous
Oct 8
Last Quarter
Oct 15
New
Oct 21
First Quarter
Oct 29
Full

Hourly Weather History & Observations

Time (MDT) Temp. Windchill Dew Point Humidity Pressure Visibility Wind Dir Wind Speed Gust Speed Precip Events Conditions
12:53 AM 34.0 °F 23.8 °F 28.0 °F 79% 30.10 in 10.0 mi East 16.1 mph - N/A   Overcast
1:53 AM 33.1 °F 24.4 °F 28.0 °F 82% 30.11 in 10.0 mi ESE 11.5 mph 19.6 mph N/A   Overcast
2:53 AM 33.1 °F 22.6 °F 28.0 °F 82% 30.07 in 10.0 mi SE 16.1 mph - N/A   Overcast
3:16 AM 33.8 °F 25.8 °F 28.4 °F 81% 30.21 in 10.0 mi ESE 10.4 mph - N/A   Overcast
3:53 AM 32.0 °F 22.1 °F 28.0 °F 85% 30.10 in 10.0 mi ESE 13.8 mph - N/A   Overcast
4:03 AM 32.0 °F 23.6 °F 28.4 °F 87% 30.19 in 6.0 mi ESE 10.4 mph - N/A   Overcast
4:25 AM 32.0 °F 23.0 °F 30.2 °F 93% 30.19 in 1.8 mi SE 11.5 mph - N/A   Overcast
4:53 AM 32.0 °F 22.1 °F 30.0 °F 92% 30.14 in 1.5 mi SE 13.8 mph - N/A   Overcast
5:21 AM 32.0 °F 24.8 °F 30.2 °F 93% 30.19 in 0.8 mi SE 8.1 mph - N/A   Mist
5:31 AM 30.2 °F 20.8 °F 30.2 °F 100% 30.19 in 2.0 mi SE 11.5 mph 18.4 mph N/A   Overcast
5:45 AM 30.2 °F 20.8 °F 28.4 °F 93% 30.19 in 0.8 mi ESE 11.5 mph - N/A   Mist
5:53 AM 30.9 °F 21.7 °F 30.0 °F 96% 30.17 in 0.2 mi SE 11.5 mph - N/A Fog Light Freezing Fog
5:57 AM 30.2 °F 19.8 °F 30.2 °F 100% 30.18 in 0.5 mi SE 13.8 mph - N/A Fog Light Freezing Fog
6:35 AM 30.2 °F 20.2 °F 28.4 °F 93% 30.18 in 0.2 mi SE 12.7 mph - N/A Fog Light Freezing Fog
6:44 AM 30.2 °F 20.2 °F 28.4 °F 93% 30.18 in 0.5 mi SE 12.7 mph - N/A Fog Light Freezing Fog
6:53 AM 30.9 °F 21.7 °F 28.9 °F 92% 30.18 in 0.8 mi SE 11.5 mph - N/A   Mist
7:10 AM 30.2 °F 21.9 °F 28.4 °F 93% 30.19 in 0.8 mi SE 9.2 mph - N/A   Mist
7:53 AM 30.9 °F 23.5 °F 28.9 °F 92% 30.19 in 0.8 mi SSE 8.1 mph - N/A   Mist
8:03 AM 30.2 °F 20.8 °F 30.2 °F 100% 30.19 in 1.2 mi SSE 11.5 mph - N/A   Overcast
8:41 AM 30.2 °F 22.6 °F 30.2 °F 100% 30.19 in 0.8 mi SSE 8.1 mph - N/A   Overcast
8:53 AM 32.0 °F 24.8 °F 30.0 °F 92% 30.20 in 0.8 mi South 8.1 mph - N/A   Mist
9:44 AM 33.8 °F 27.7 °F 30.2 °F 87% 30.20 in 1.5 mi South 6.9 mph - N/A   Overcast
9:53 AM 33.1 °F 27.7 °F 30.0 °F 89% 30.20 in 1.5 mi South 5.8 mph - N/A   Overcast
10:08 AM 33.8 °F 29.6 °F 30.2 °F 87% 30.20 in 3.0 mi SW 4.6 mph - N/A   Overcast
10:19 AM 33.8 °F 28.6 °F 30.2 °F 87% 30.20 in 2.5 mi SSW 5.8 mph - N/A   Overcast
10:27 AM 35.6 °F 29.9 °F 30.2 °F 81% 30.20 in 5.0 mi SSW 6.9 mph - N/A   Overcast
10:53 AM 36.0 °F 29.6 °F 30.9 °F 82% 30.17 in 10.0 mi South 8.1 mph - N/A   Overcast
11:29 AM 39.2 °F 34.2 °F 33.8 °F 81% 30.18 in 10.0 mi Variable 6.9 mph - N/A   Overcast
11:53 AM 43.0 °F 39.5 °F 33.1 °F 68% 30.12 in 10.0 mi Variable 5.8 mph - N/A   Mostly Cloudy
12:00 PM 44.6 °F 39.7 °F 33.8 °F 66% 30.17 in 10.0 mi SW 9.2 mph - N/A   Scattered Clouds
12:53 PM 50.0 °F - 34.0 °F 54% 30.07 in 10.0 mi WSW 9.2 mph - N/A   Clear
1:53 PM 55.0 °F - 33.1 °F 43% 30.03 in 10.0 mi West 15.0 mph 20.7 mph N/A   Clear
2:53 PM 60.1 °F - 27.0 °F 28% 29.99 in 10.0 mi West 19.6 mph 25.3 mph N/A   Clear
3:53 PM 61.0 °F - 16.0 °F 17% 29.98 in 10.0 mi NW 18.4 mph 28.8 mph N/A   Clear
4:53 PM 62.1 °F - 15.1 °F 16% 29.98 in 10.0 mi NW 19.6 mph 24.2 mph N/A   Clear
5:53 PM 60.1 °F - 12.0 °F 15% 30.00 in 10.0 mi West 12.7 mph - N/A   Clear
6:53 PM 48.0 °F - 30.0 °F 50% 30.07 in 10.0 mi ENE 8.1 mph - N/A   Clear
7:53 PM 43.0 °F 36.8 °F 30.9 °F 62% 30.13 in 10.0 mi ESE 11.5 mph - N/A   Clear
8:53 PM 39.0 °F 33.4 °F 28.9 °F 67% 30.16 in 10.0 mi SE 8.1 mph - N/A   Clear
9:53 PM 37.0 °F 31.0 °F 28.0 °F 70% 30.17 in 10.0 mi ESE 8.1 mph - N/A   Clear
10:53 PM 36.0 °F 31.1 °F 27.0 °F 70% 30.16 in 10.0 mi SSE 5.8 mph - N/A   Clear
11:53 PM 37.0 °F 31.0 °F 28.9 °F 73% 30.11 in 10.0 mi SSW 8.1 mph - N/A   Clear